Roseau, MN

12:27 AM CDT on September 26, 2016 (GMT -0500)
Roseau Municipal-Billberg

Weather History for KROX - December, 2011

Change the Weather History Date:

Thursday, December 1, 2011

  Actual Average Record
Temperature  
Mean Temperature 14 °F -  
Max Temperature 21 °F 22 °F 50 °F (1962)
Min Temperature 8 °F 4 °F -27 °F (1978)
Degree Days  
Heating Degree Days 50    
Moisture  
Dew Point 9 °F    
Average Humidity 72    
Maximum Humidity 85    
Minimum Humidity 58    
Precipitation  
Precipitation 0.00 in - - ()
Sea Level Pressure  
Sea Level Pressure 30.42 in    
Wind  
Wind Speed 6 mph (West)    
Max Wind Speed 14 mph    
Max Gust Speed 17 mph    
Visibility 10 miles    
Events      
Averages and records for this station are not official NWS values.
T = Trace of Precipitation, MM = Missing Value Source: NWS Daily Summary

Daily Weather History Graph

Daily Weather History Graph

Search for Another Location

Airport or City:

Trip Planner

Search our weather history database for the weather conditions in past years. The results will help you decide how hot, cold, wet, or windy it might be!

Date:

Astronomy

Dec. 01, 2011 Rise Set
Actual Time 7:54 AM CST 4:28 PM CST
Civil Twilight 7:18 AM CST 5:04 PM CST
Nautical Twilight 6:38 AM CST 5:44 PM CST
Astronomical Twilight 6:00 AM CST 6:22 PM CST
Moon 12:18 PM CST (12/1) 11:52 PM CST (12/1)
Length of Visible Light 9h 46m
Length of Day
8h 34m
Waxing Crescent, 43% of the Moon is Illuminated
Dec 1
Waxing Crescent
Dec 2
First Quarter
Dec 10
Full
Dec 17
Last Quarter
Dec 24
New

Hourly Weather History & Observations

Time (CST) Temp. Windchill Dew Point Humidity Pressure Visibility Wind Dir Wind Speed Gust Speed Precip Events Conditions
12:15 AM 17.6 °F 4.3 °F 6.8 °F 63% 30.32 in 10.0 mi North 12.7 mph - N/A   Clear
12:34 AM 17.6 °F 5.7 °F 6.8 °F 63% 30.33 in 10.0 mi North 10.4 mph - N/A   Scattered Clouds
1:15 AM 17.6 °F 5.0 °F 6.8 °F 63% 30.34 in 10.0 mi North 11.5 mph - N/A   Clear
1:34 AM 17.6 °F 7.3 °F 6.8 °F 63% 30.35 in 10.0 mi North 8.1 mph 16.1 mph N/A   Clear
1:54 AM 17.6 °F 5.0 °F 8.6 °F 68% 30.36 in 10.0 mi North 11.5 mph - N/A   Clear
2:15 AM 17.6 °F 9.3 °F 8.6 °F 68% 30.37 in 10.0 mi North 5.8 mph - N/A   Clear
2:34 AM 17.6 °F 3.7 °F 6.8 °F 63% 30.37 in 10.0 mi North 13.8 mph - N/A   Clear
2:54 AM 17.6 °F 4.3 °F 8.6 °F 68% 30.38 in 10.0 mi North 12.7 mph - N/A   Clear
3:34 AM 15.8 °F 3.4 °F 8.6 °F 73% 30.40 in 10.0 mi North 10.4 mph 16.1 mph N/A   Clear
3:55 AM 15.8 °F 4.2 °F 8.6 °F 73% 30.41 in 10.0 mi North 9.2 mph - N/A   Clear
4:15 AM 15.8 °F - 8.6 °F 73% 30.42 in 10.0 mi Calm Calm - N/A   Clear
4:34 AM 12.2 °F - 6.8 °F 79% 30.43 in 10.0 mi Calm Calm - N/A   Clear
4:54 AM 14.0 °F - 8.6 °F 79% 30.44 in 10.0 mi Calm Calm - N/A   Scattered Clouds
5:14 AM 15.8 °F - 8.6 °F 73% 30.44 in 10.0 mi Calm Calm - N/A   Mostly Cloudy
5:35 AM 14.0 °F - 8.6 °F 79% 30.45 in 10.0 mi Calm Calm - N/A   Scattered Clouds
5:54 AM 12.2 °F - 8.6 °F 85% 30.45 in 10.0 mi Calm Calm - N/A   Clear
6:14 AM 12.2 °F - 8.6 °F 85% 30.46 in 10.0 mi Calm Calm - N/A   Clear
6:35 AM 10.4 °F - 6.8 °F 85% 30.47 in 10.0 mi Calm Calm - N/A   Clear
6:54 AM 10.4 °F - 6.8 °F 85% 30.48 in 10.0 mi Calm Calm - N/A   Clear
7:14 AM 10.4 °F - 6.8 °F 85% 30.48 in 10.0 mi Calm Calm - N/A   Clear
7:35 AM 8.6 °F - 5.0 °F 85% 30.48 in 10.0 mi Calm Calm - N/A   Clear
7:54 AM 8.6 °F - 5.0 °F 85% 30.49 in 10.0 mi Calm Calm - N/A   Clear
8:14 AM 8.6 °F - 5.0 °F 85% 30.49 in 10.0 mi Calm Calm - N/A   Clear
8:35 AM 8.6 °F - 5.0 °F 85% 30.49 in 10.0 mi Calm Calm - N/A   Clear
8:54 AM 10.4 °F - 6.8 °F 85% 30.50 in 10.0 mi Calm Calm - N/A   Clear
9:14 AM 12.2 °F - 8.6 °F 85% 30.50 in 10.0 mi Calm Calm - N/A   Clear
9:35 AM 14.0 °F - 8.6 °F 79% 30.50 in 10.0 mi Calm Calm - N/A   Clear
9:54 AM 15.8 °F - 10.4 °F 79% 30.51 in 10.0 mi Calm Calm - N/A   Clear
10:14 AM 15.8 °F - 10.4 °F 79% 30.52 in 10.0 mi Calm Calm - N/A   Clear
10:35 AM 15.8 °F - 10.4 °F 79% 30.52 in 10.0 mi Calm Calm - N/A   Clear
10:54 AM 15.8 °F - 10.4 °F 79% 30.51 in 10.0 mi Calm Calm - N/A   Clear
11:14 AM 17.6 °F - 10.4 °F 73% 30.51 in 10.0 mi Calm Calm - N/A   Clear
11:34 AM 17.6 °F 8.2 °F 10.4 °F 73% 30.50 in 10.0 mi West 6.9 mph - N/A   Clear
11:54 AM 17.6 °F 8.2 °F 10.4 °F 73% 30.51 in 10.0 mi WSW 6.9 mph - N/A   Clear
12:14 PM 17.6 °F 10.7 °F 10.4 °F 73% 30.50 in 10.0 mi West 4.6 mph - N/A   Clear
12:35 PM 17.6 °F 5.7 °F 8.6 °F 68% 30.49 in 10.0 mi West 10.4 mph - N/A   Clear
12:54 PM 19.4 °F 8.6 °F 8.6 °F 63% 30.48 in 10.0 mi West 9.2 mph - N/A   Clear
1:14 PM 19.4 °F 7.2 °F 8.6 °F 63% 30.46 in 10.0 mi West 11.5 mph 17.3 mph N/A   Clear
1:34 PM 19.4 °F 11.5 °F 6.8 °F 58% 30.45 in 10.0 mi WSW 5.8 mph - N/A   Clear
1:54 PM 19.4 °F 9.5 °F 8.6 °F 63% 30.45 in 10.0 mi West 8.1 mph - N/A   Clear
2:15 PM 19.4 °F 10.4 °F 8.6 °F 63% 30.44 in 10.0 mi West 6.9 mph - N/A   Clear
2:34 PM 19.4 °F 7.2 °F 8.6 °F 63% 30.43 in 10.0 mi West 11.5 mph - N/A   Clear
2:54 PM 21.2 °F - 8.6 °F 58% 30.41 in 10.0 mi Calm Calm - N/A   Scattered Clouds
3:15 PM 21.2 °F - 8.6 °F 58% 30.40 in 10.0 mi Calm Calm - N/A   Clear
3:34 PM 21.2 °F - 10.4 °F 63% 30.40 in 10.0 mi Calm Calm - N/A   Scattered Clouds
4:15 PM 21.2 °F - 10.4 °F 63% 30.38 in 10.0 mi Calm Calm - N/A   Overcast
4:34 PM 21.2 °F 10.1 °F 10.4 °F 63% 30.38 in 10.0 mi SW 10.4 mph - N/A   Overcast
4:54 PM 21.2 °F - 10.4 °F 63% 30.37 in 10.0 mi Calm Calm - N/A   Overcast
5:15 PM 19.4 °F - 10.4 °F 68% 30.36 in 10.0 mi Calm Calm - N/A   Overcast
5:34 PM 19.4 °F 7.9 °F 10.4 °F 68% 30.35 in 10.0 mi SSW 10.4 mph - N/A   Overcast
5:54 PM 19.4 °F 9.5 °F 10.4 °F 68% 30.34 in 10.0 mi SSW 8.1 mph - N/A   Overcast
6:15 PM 19.4 °F 6.6 °F 10.4 °F 68% 30.32 in 10.0 mi SSW 12.7 mph - N/A   Overcast
6:54 PM 19.4 °F 7.9 °F 10.4 °F 68% 30.30 in 10.0 mi SSW 10.4 mph - N/A   Overcast
7:14 PM 19.4 °F 7.9 °F 10.4 °F 68% 30.29 in 10.0 mi SSW 10.4 mph - N/A   Scattered Clouds
7:34 PM 19.4 °F 6.6 °F 10.4 °F 68% 30.27 in 10.0 mi SSW 12.7 mph - N/A   Scattered Clouds
7:54 PM 17.6 °F 4.3 °F 10.4 °F 73% 30.26 in 10.0 mi SSW 12.7 mph - N/A   Clear
8:15 PM 17.6 °F 4.3 °F 10.4 °F 73% 30.25 in 10.0 mi SSW 12.7 mph - N/A   Clear
8:34 PM 17.6 °F 6.4 °F 10.4 °F 73% 30.24 in 10.0 mi South 9.2 mph - N/A   Scattered Clouds
8:54 PM 15.8 °F 4.2 °F 10.4 °F 79% 30.23 in 10.0 mi South 9.2 mph - N/A   Clear
9:13 PM 17.6 °F 4.3 °F 12.2 °F 79% 30.22 in 10.0 mi South 12.7 mph - N/A   Mostly Cloudy
9:54 PM 17.6 °F 4.3 °F 12.2 °F 79% 30.20 in 10.0 mi SSW 12.7 mph 18.4 mph N/A   Clear
10:14 PM 17.6 °F 3.2 °F 12.2 °F 79% 30.18 in 10.0 mi SSW 15.0 mph - N/A   Clear
10:34 PM 19.4 °F 5.5 °F 12.2 °F 74% 30.17 in 10.0 mi SSW 15.0 mph - N/A   Clear
11:15 PM 19.4 °F 4.5 °F 14.0 °F 80% 30.15 in 10.0 mi SSW 17.3 mph 23.0 mph N/A   Clear
11:54 PM 19.4 °F 5.0 °F 15.8 °F 86% 30.13 in 10.0 mi SSW 16.1 mph 21.9 mph N/A   Clear